Regional Weather Roundup
Issued by NWS Northern Indiana

Home | Current Version | Previous Version | Graphics & Text | Print | Product List | Glossary On
Versions: 1 2 3 4 5 6 7 8 9 10 11 12 13 14 15 16 17 18 19 20 21 22 23 24 25 26 27 28 29 30 31 32 33 34 35 36 37 38 39 40 41 42 43 44 45 46 47 48 49 50
000
ASUS43 KIWX 261400
RWRIWX

KIWX WEATHER ROUNDUP
NATIONAL WEATHER SERVICE NORTHERN INDIANA
900 AM EST MON JAN 26 2015

NOTE: "FAIR" INDICATES FEW OR NO CLOUDS BELOW 12,000 FEET WITH NO
SIGNIFICANT WEATHER AND/OR OBSTRUCTIONS TO VISIBILITY.

* THESE STATIONS ARE NOT UNDER NWS QUALITY CONTROL. THEY ALSO MAY NOT
  REPORT WEATHER SUCH AS PRECIPITATION OR FOG.

INZ001>027-261500-
NORTHERN INDIANA

CITY           SKY/WX    TMP DP  RH WIND       PRES   REMARKS
SOUTH BEND     PTCLDY    13   8  81 NE3       29.96F
ELKHART*       CLEAR     12   7  79 CALM      29.97S
GOSHEN         PTCLDY    12   9  87 N6        29.96R WCI   3
ANGOLA*        CLEAR      7   5  92 CALM      29.93R
FORT WAYNE     MOCLDY    10   6  84 N6        29.95R WCI   0
PERU/GRISSOM   MOCLDY    11   7  83 CALM      29.95R

$$
INZ028>050-261500-
CENTRAL INDIANA

CITY           SKY/WX    TMP DP  RH WIND       PRES   REMARKS
LAFAYETTE      CLEAR     15  11  83 CALM      29.97S
KOKOMO*        PTCLDY    12   7  79 CALM      29.96R
MUNCIE*        PTCLDY    14   8  77 N8        29.93R WCI   3
INDIANAPOLIS   MOCLDY    20  14  77 N6        29.94R WCI  12

$$
MIZ043>046-050>051-056>058-064>065-071>073-077>080-261500-
SOUTHWEST LOWER MICHIGAN

CITY           SKY/WX    TMP DP  RH WIND       PRES   REMARKS
BATTLE CREEK   CLEAR     12   6  77 NE3       29.95R
BENTON HARBOR  PTCLDY    11   9  92 E5        29.96F WCI   3
COLDWATER*     CLEAR      8   6  89 MISG      29.94R
HILLSDALE*     CLEAR      8   6  90 CALM      29.91R
HOLLAND        PTCLDY    13   7  77 E5        29.98S WCI   5
GRAND RAPIDS   MOCLDY     9   5  84 E6        29.96F WCI  -1
KALAMAZOO      PTCLDY    11   8  88 CALM      29.96R
STURGIS*       CLEAR      9   7  92 CALM      29.94R
THREE RIVERS*  FAIR      12   8  84 CALM      29.97S

$$
OHZ001>008-015>018-024>025-261500-
NORTHWEST OHIO

CITY           SKY/WX    TMP DP  RH WIND       PRES   REMARKS
DEFIANCE       PTCLDY    11   5  77 N7        29.95R WCI   0
FINDLAY        CLOUDY    14   8  77 N12       29.88R WCI   0
TOLEDO EXPRESS PTCLDY    10   5  80 N8        29.94R WCI  -2
TOLEDO METCALF CLOUDY    14   6  70 NE9       29.94R WCI   2
LIMA           CLOUDY    15   7  70 N12       29.88R WCI   2

$$
AND FOR LAKE MICHIGAN COASTAL AND OPEN LAKE BUOY OBSERVATIONS

STATION/POSITION TEMP    WIND        PRES    VSBY  WAVE
                 AIR SEA DIR/SP/G                  HT/PER
                 (F)     (DEG/KT/KT) (MB)    (MI)  (FT/S)
CALUMET HARBOR    18     170/  5/  7   N/A
MICHIGAN CITY     15      80/  3/  4   N/A
SAINT JOSEPH      13      CALM  /  4 1015.6R

$$
&&


USA.gov is the U.S. government's official web portal to all federal, state and local government web resources and services.